Regional Weather Roundup
Issued by NWS Grand Forks, ND

Home | Current Version | Previous Version | Text Only | Print | Product List | Glossary On
Versions: 1 2 3 4 5 6 7 8 9 10 11 12 13 14 15 16 17 18 19 20 21 22 23 24 25 26 27 28 29 30 31 32 33 34 35 36 37 38 39 40 41 42 43 44 45 46 47 48 49 50
000
ASUS43 KFGF 291031
RWRFGF
PRAIRIE TO PINES  WEATHER ROUNDUP
NATIONAL WEATHER SERVICE EASTERN NORTH DAKOTA/GRAND FORKS ND
500 AM CDT TUE JUL 29 2014

 **SATELLITE DATA USED TO AUGMENT SKY COVER AT AUTOMATED STATIONS**
 *****  WEATHER ACROSS EASTERN NORTH DAKOTA  *****

CITY           SKY/WX    TMP DP  RH WIND       PRES   REMARKS
GRAND FORKS    CLEAR     52  50  93 CALM      30.17S
GRAND FRKS AFB CLEAR     53  53  99 W6        30.18S
GRAND FRKS NWS   N/A     48 N/A N/A MISG        N/A
DEVILS LAKE    CLEAR     55  50  82 CALM      30.19S
FARGO          CLEAR     53  50  89 CALM      30.18S
WAHPETON ARPT  SUNNY     48  46  93 CALM      30.19S
$$

 ***** WEATHER ACROSS CENTRAL AND WESTERN NORTH DAKOTA  *****

CITY           SKY/WX    TMP DP  RH WIND       PRES   REMARKS
BISMARCK       CLEAR     52  50  93 CALM      30.24S
MINOT          CLEAR     56  52  86 CALM      30.21S
JAMESTOWN      CLEAR     53  50  89 W3        30.21S
MINOT AFB      CLEAR     53  53  99 CALM      30.21S
GARRISON         N/A     55  54  96 CALM      30.22S
WILLISTON      CLEAR     54  51  90 CALM      30.21F
DICKINSON      CLEAR     53  49  86 S9        30.22F
HETTINGER      CLEAR     46  43  89 CALM      30.25F
$$

 *****  OTHER AIRPORT OBSERVATIONS IN OUR AREA  *****

CITY           SKY/WX    TMP DP  RH WIND       PRES   REMARKS
WALHALLA         N/A     50  50 100 CALM        N/A
GRAFTON AIRPOR FAIR      54  54 100 NW6       30.17S
VALLEY CITY AR FAIR      54  54 100 CALM      30.21S
CANDO          FAIR      48  46  93 W6        30.22R
CAVALIER APRT  FAIR      54  50  87 W6        30.17S
GWINNER        SUNNY     54  54 100 W7        30.21S
SHEYENNE NWR     N/A     50  49  96 W3        29.95S
ROLLA          PTSUNNY   50  50 100 W3        30.23S
 ***** THE ABOVE OBSERVATIONS ARE NON NWS ARE NOT QUALITY
       CONTROLLED AND MAY MIS-REPORT RAIN FOR SNOW...
$$

  *****  WEATHER ACROSS NORTHERN MINNESOTA  *****

CITY           SKY/WX    TMP DP  RH WIND       PRES   REMARKS
FLAG ISLAND    CLEAR     63  55  77 NW10      30.11S
WARROAD        CLEAR     55  52  88 W3        30.14S
ROSEAU         CLEAR     55  52  88 W5        30.15S
HALLOCK        CLEAR     54  52  94 CALM      30.17R
THF RVR FALLS  CLEAR     55  54  94 CALM      30.17S
BAUDETTE       CLOUDY    58  55  90 CALM      30.13S
WASKISH        CLEAR     61  55  82 NW8       30.13S
CROOKSTON      CLEAR     54  52  94 NW5       30.18S
$$
  *****  WEATHER ACROSS CENTRAL AND WEST MINNESOTA  *****

CITY           SKY/WX    TMP DP  RH WIND       PRES   REMARKS
FOSSTON        CLEAR     48  46  93 CALM      30.18S
BEMIDJI        CLEAR     51  50  95 W6        30.15S
PARK RAPIDS    CLEAR     49  48  97 W3        30.16S
ELBOW LAKE     FAIR      52  51  97 CALM      30.18S
WADENA         CLEAR     54  52  94 W3        30.17S
DETROIT LAKES  CLEAR     55  54  94 NW5       30.19S
MOORHEAD       CLEAR     52  52 100 CALM      30.19S
FERGUS FALLS   CLEAR     54  52  94 CALM      30.19S
MORRIS MN      CLEAR     52  52 100 NW3       30.18S
STAPLES        CLEAR     54  52  94 W3        30.16S
$$
  *****  WEATHER ELSEWHERE ACROSS MINNESOTA  *****

CITY           SKY/WX    TMP DP  RH WIND       PRES   REMARKS
DULUTH         PTCLDY    54  51  90 W6        30.09S
INTRNTL FALLS  MOCLDY    56  55  97 W3        30.09S
ELY            PTCLDY    55  54  94 CALM      30.07S
CLOQUET        CLEAR     52  50  93 W6        30.10S
WHEATON        CLEAR     54  52  94 W3        30.21S
BRAINERD       CLEAR     54  52  93 CALM      30.15R
HIBBING        CLEAR     50  47  89 N3        30.10F
ALEXANDRIA     CLEAR     57  54  89 NW5       30.19S
SAINT CLOUD    CLEAR     57  53  86 NW5       30.14S
MINNEAPOLIS    PTCLDY    60  56  86 NW7       30.12S
$$

  *****  WEATHER ACROSS SOUTH DAKOTA  *****

CITY           SKY/WX    TMP DP  RH WIND       PRES   REMARKS
SIOUX FALLS    CLEAR     51  50  96 CALM      30.21S
BROOKINGS      NOT AVBL
WATERTOWN      PTCLDY    51  50  96 CALM      30.22R
HURON          MOCLDY    50  48  93 CALM      30.21S
SISSETON         N/A     50  50 100 CALM      30.19S
ABERDEEN       CLEAR     46  45  96 CALM      30.22S FOG
MITCHELL       PTCLDY    52  50  93 W3        30.22S
PIERRE         CLEAR     51  50  96 E3        30.21S
MOBRIDGE       CLEAR     54  52  93 SE5       30.20F
RAPID CITY     CLEAR     55  49  80 CALM      30.26S
$$

  *****  SOME WEATHER IN NEARBY STATES *****

CITY           SKY/WX    TMP DP  RH WIND       PRES   REMARKS
GLASGOW MT     PTCLDY    61  48  62 SE5       30.19S
GREAT FALLS MT PTCLDY    62  47  57 N6        30.17S
CHEYENNE WY    PTCLDY    57  51  80 W6        30.30F
SCOTTSBLUFF NE CLEAR     61  58  90 E6        30.21S
OMAHA NE       CLEAR     57  55  93 NW5       30.18S
DES MOINES IA  CLEAR     59  55  87 NW7       30.16R
DAVENPORT IA   CLEAR     51  49  92 W7        30.11S
CHICAGO IL     CLEAR     60  51  72 W5        30.03S
EAU CLAIRE WI  CLEAR     55  53  93 SW3       30.08R
LA CROSSE WI   CLEAR     56  53  90 CALM      30.08R
$$

  *****  SOME NATIONAL WEATHER *****

CITY           SKY/WX    TMP DP  RH WIND       PRES   REMARKS
LA GUARDIA NY  PTCLDY    65  54  67 NW8       29.79R
RALEIGH NC     MOCLDY    66  57  72 CALM      29.92R
ATLANTA GA     CLEAR     67  61  81 NW8       29.97R
NEW ORLEANS LA MOCLDY    80  69  69 NE9       30.01R
OKLAHOMA CITY  CLOUDY    73  65  75 CALM      30.15S
ALBUQUERQUE NM MOCLDY    68  61  78 NE10      30.30F
SALT LAKE CITY CLOUDY    68  62  81 N5        30.19F
LOS ANGELES CA CLEAR     69  60  73 CALM      30.02S
BOISE ID       MOCLDY    79  48  33 SE8       30.06S
SEATTLE WA     CLEAR     65  49  56 N3        30.10R
$$

*** WEATHER ACROSS MANITOBA...SASKATCHEWAN AND ONTARIO ***
                ***ONTARIO***

CITY           SKY/WX    TMP DP  RH WIND       PRES   REMARKS
GERALDTON      FOG       52  52 100 NW6       29.95  VSB 1/2
THUNDER BAY    NOT AVBL
SIOUX LOOKOUT  PTCLDY    55  55 100 N3        30.03S
TORONTO        MOCLDY    59  52  77 NW9       29.90R
BIG TROUT LK   CLEAR     48  46  93 NE5       30.08R
PICKLE LAKE    NOT AVBL
DRYDEN         NOT AVBL
KENORA         MOCLDY    59  54  82 NW9       30.11S
$$
                *** MANITOBA***

CITY           SKY/WX    TMP DP  RH WIND       PRES   REMARKS
BRANDON        PTCLDY    50  48  93 W6        30.21S
DAUPHIN        CLEAR     52  50  93 SW5       30.18F
ISLAND LAKE    MOCLDY    61  54  77 N2        30.06R
PILOT MOUND      N/A     48  48 100 W3          N/A
THE PAS        PTCLDY    52  52 100 CALM      30.15F
THOMPSON       PTCLDY    46  46 100 CALM      30.09S
WINNIPEG       CLEAR     54  52  94 W8        30.17S
LYNN LAKE      CLEAR     54  54 100 N5        30.12S
CHURCHILL      FOG       43  43 100 SE7       30.17S VSB 1/2
GILLAM         FOG       52  52 100 NE3       30.12S VSB 1/4
$$
                ***SASKATCHEWAN***

CITY           SKY/WX    TMP DP  RH WIND       PRES   REMARKS
ESTEVAN        MOCLDY    57  55  94 E2        30.22S
KINDERSLEY     PTCLDY    57  54  88 SE8       30.21F
LLOYDMINSTER   MOCLDY    59  55  88 SE5       30.20S
PRINCE ALBERT  FOG       55  55 100 CALM      30.20R VSB 1/2
REGINA         CLEAR     57  57 100 SE6       30.22S
YORKTON        MOCLDY    55  54  94 N5        30.21S
N. BATTLEFORD    N/A     57  54  88 SE5       30.22S
LA RONGE       PTCLDY    50  48  93 CALM      30.18S
SASKATOON      CLEAR     57  55  94 SE2       30.22S
SWIFT CURRENT  MOCLDY    55  52  88 S9        30.23S
$$
NOTE: THESE ARE AUTOMATED STATIONS WITH LIMITED QUALITY CONTROL
      "FAIR" INDICATES FEW OR NO CLOUDS BELOW 12,000 FEET WITH NO
      SIGNIFICANT WEATHER AND/OR OBSTRUCTIONS TO VISIBILITY.
      SKY/WX - SKY CONDITION AND SIGNIFICANT WEATHER.
      TMP - AIR TEMPERATURE.    DP   - DEWPOINT TEMPERATURE.
      RH  - RELATIVE HUMIDITY.  PRES - PRESSURE.
      HX  - HEAT INDEX.         WCI  - WIND CHILL INDEX.
$



USA.gov is the U.S. government's official web portal to all federal, state and local government web resources and services.